[[{"header":{"parameterUnit":"m.s-1","parameterCategory":1,"la1":30.2991,"la2":30.254,"lo1":-89.0895,"lo2":-89.0444,"dy":0.0017,"dx":0.0017,"nx":28,"ny":28,"refTime":"2025-01-06T09:00:00:Z","depth":0,"parameterNumber":2,"parameterNumberName":"U-component_of_WINDS"},"data":[0,0,0,0,0,0,0,0,0,0,0,0,0,0,0,0,0,0,0,0,0,0,0,0,0,0,0,0,0,0,0,0,0,0,0,0,0,0,0,0,0,0,0,0,0,0,0,0,0,0,0,0,0,0,0,0,0,0,0.2265,0.2265,0,0.2234,0.2234,0.2234,0.2232,0.2232,0.2233,0.2233,0.22,0.2199,0.2198,0,0,0,0,0,0,0,0,0,0,0,0,0,0.2322,0.2321,0.2265,0.2265,0.2264,0.2234,0.2234,0.2234,0.2232,0.2232,0.2233,0.2233,0.2201,0.2199,0.2198,0,0,0,0,0,0,0,0,0,0,0,0,0,0.2295,0.232,0.2265,0.226,0.2259,0.2234,0.2234,0.2233,0.2232,0.2232,0.2233,0.2233,0.2201,0.22,0.2198,0.2176,0,0,0.2192,0.2191,0,0,0,0,0,0,0,0,0.2296,0.2293,0.2261,0.226,0.2259,0.2238,0.2242,0.2214,0.2232,0.2242,0.2233,0.2234,0.2212,0.221,0.2203,0.2174,0.2173,0.2192,0.2191,0.219,0.219,0,0,0,0,0,0,0,0.2298,0.2294,0.2253,0.2261,0.226,0.2259,0.2256,0.2237,0.2225,0.2241,0.2241,0.2238,0.2212,0.2204,0.2202,0.2172,0.2192,0.219,0.2189,0.2189,0.2125,0.2124,0,0,0,0,0,0,0.2301,0.2295,0.2254,0.2252,0.228,0.2258,0.2254,0.2244,0.2225,0.2222,0.2237,0.2238,0.2207,0.2204,0.2201,0.2174,0.219,0.2188,0.2187,0.2125,0.2125,0.2124,0,0,0,0,0,0,0.2302,0.2297,0.2255,0.2274,0.2268,0.2256,0.2245,0.2243,0.2236,0.2222,0.2219,0.2232,0.2207,0.2203,0.2182,0.2172,0.2188,0.2186,0.2126,0.2125,0.2124,0.2119,0,0,0,0,0,0,0.2304,0.2298,0.2289,0.2274,0.2267,0.2237,0.2244,0.2242,0.2233,0.2233,0.2216,0.2214,0.2208,0.2185,0.218,0.217,0.2185,0.2127,0.2126,0.2125,0.212,0.2118,0.2117,0,0,0,0,0,0.2306,0.2289,0.2289,0.2284,0.2256,0.2237,0.2233,0.2227,0.2232,0.2223,0.2214,0.2214,0.2175,0.2183,0.2178,0.2167,0.2128,0.2126,0.2125,0.2121,0.2119,0.2117,0,0,0,0,0,0,0.2303,0.2287,0.2286,0.2264,0.2252,0.2236,0.2225,0.2224,0.221,0.2211,0.2204,0.22,0.2179,0.2171,0.218,0.2145,0.2152,0.2149,0.215,0.2148,0.2146,0.2148,0.2183,0,0,0,0,0,0.23,0.2285,0.2272,0.2253,0.2247,0.2237,0.2228,0.2225,0.2212,0.2206,0.2196,0.2183,0.2168,0.2158,0.2143,0.212,0.2116,0.211,0.2108,0.2107,0.2104,0.2091,0.2089,0.212,0.212,0.212,0,0,0.2293,0.2282,0.2273,0.2252,0.2242,0.2227,0.2233,0.2216,0.2205,0.2204,0.2183,0.2175,0.2161,0.2138,0.2128,0.2131,0.2095,0.2105,0.2104,0.2102,0.209,0.2087,0.2084,0.2119,0.2119,0.2119,0,0,0.2272,0.2263,0.2246,0.2236,0.2222,0.2216,0.2212,0.2197,0.2192,0.2171,0.217,0.2157,0.213,0.212,0.2111,0.2088,0.2087,0.2084,0.2074,0.2061,0.2059,0.2057,0.2048,0.2045,0.2082,0.2082,0.2082,0,0.2265,0.2242,0.2237,0.2221,0.2212,0.2211,0.2194,0.2185,0.2166,0.216,0.2164,0.2131,0.2121,0.2097,0.2091,0.2084,0.2079,0.2085,0.206,0.2058,0.2055,0.2047,0.2044,0.2081,0.2081,0.2081,0.2081,0,0.2234,0.2219,0.2207,0.2189,0.2179,0.2163,0.2155,0.2145,0.2143,0.2137,0.2116,0.2104,0.2087,0.2081,0.2079,0.2056,0.2059,0.2062,0.2068,0.2052,0.2044,0.2041,0.2081,0.2081,0.2081,0.2081,0,0,0.2209,0.219,0.2186,0.2178,0.2163,0.215,0.2134,0.2118,0.211,0.2097,0.2083,0.2062,0.2064,0.2055,0.2051,0.204,0.2023,0.2044,0.2044,0.204,0.1997,0.1995,0.1991,0.2023,0.2022,0.2022,0.1998,0,0.2186,0.2157,0.2153,0.2128,0.2113,0.2113,0.2099,0.2088,0.2082,0.2069,0.2062,0.2047,0.2051,0.2046,0.2035,0.2027,0.2014,0.2029,0.2009,0.2008,0.2012,0.1987,0.1984,0.1962,0.1995,0.1995,0.1994,0,0.2155,0.2142,0.2116,0.2103,0.2097,0.2084,0.2069,0.2057,0.2045,0.2041,0.2031,0.2029,0.2012,0.202,0.1997,0.2007,0.1999,0.1994,0.1993,0.199,0.1999,0.1982,0.1955,0.1952,0.1989,0.199,0.199,0,0.2138,0.2115,0.2096,0.2089,0.2074,0.2065,0.2058,0.2047,0.2038,0.2025,0.2019,0.2004,0.1996,0.1985,0.1979,0.1986,0.1956,0.1964,0.1952,0.1952,0.1944,0.1945,0.1915,0.1941,0.1941,0.1941,0.1941,0,0.2113,0.2096,0.2088,0.2077,0.2058,0.2054,0.2036,0.2029,0.2019,0.2006,0.2005,0.1993,0.1987,0.1973,0.1969,0.195,0.1947,0.1943,0.1942,0.1942,0.1943,0.1936,0.1937,0.194,0.1941,0.1941,0.1941,0,0.209,0.2085,0.2064,0.2052,0.2048,0.2035,0.2025,0.2013,0.2008,0.1991,0.1987,0.1979,0.1963,0.1957,0.1938,0.1935,0.1913,0.1913,0.1917,0.1916,0.1905,0.1905,0.1868,0.1863,0.1894,0.1893,0.1893,0,0.2074,0.2061,0.2048,0.2039,0.2032,0.2018,0.2009,0.2005,0.1996,0.1982,0.1972,0.1957,0.1944,0.1919,0.1911,0.1896,0.1896,0.1884,0.1894,0.1895,0.1895,0.1895,0.1894,0.1882,0.1881,0.1881,0.1881,0,0.2044,0.2042,0.2029,0.2016,0.2005,0.1994,0.1983,0.1976,0.1971,0.196,0.1944,0.1935,0.1916,0.19,0.1886,0.1879,0.1879,0.1878,0.1875,0.1874,0.1877,0.1875,0.1911,0.1879,0.1879,0.1879,0.1879,0.1879,0.2024,0.2013,0.2002,0.1988,0.1979,0.197,0.1958,0.1952,0.1939,0.1924,0.1922,0.1905,0.1894,0.1875,0.1867,0.1854,0.1857,0.1852,0.185,0.1849,0.1847,0.188,0.1851,0.1851,0.1851,0.1851,0.1851,0,0.1994,0.1987,0.1974,0.1959,0.1948,0.1951,0.1939,0.193,0.1915,0.1905,0.1893,0.1875,0.1861,0.1852,0.1838,0.1829,0.1829,0.1825,0.1825,0.1823,0.1846,0.185,0.1826,0.1826,0.1826,0.1826,0.1826,0.1826,0.1977,0.1958,0.1955,0.1932,0.1926,0.191,0.1903,0.1894,0.1886,0.1867,0.1855,0.185,0.184,0.1825,0.1812,0.181,0.1804,0.18,0.1798,0.1819,0.1822,0.1824,0.1828,0.1799,0.1799,0.1777,0.1776,0.1776]},{"header":{"parameterUnit":"m.s-1","parameterCategory":1,"la1":30.2991,"la2":30.254,"lo1":-89.0895,"lo2":-89.0444,"dy":0.0017,"dx":0.0017,"nx":28,"ny":28,"refTime":"2025-01-06T09:00:00:Z","depth":0,"parameterNumber":3,"parameterNumberName":"V-component_of_WINDS"},"data":[0,0,0,0,0,0,0,0,0,0,0,0,0,0,0,0,0,0,0,0,0,0,0,0,0,0,0,0,0,0,0,0,0,0,0,0,0,0,0,0,0,0,0,0,0,0,0,0,0,0,0,0,0,0,0,0,0,0,-4.6704,-4.6705,0,-4.6767,-4.6768,-4.6769,-4.6756,-4.6755,-4.6754,-4.6753,-4.6812,-4.6815,-4.6817,0,0,0,0,0,0,0,0,0,0,0,0,0,-4.657,-4.6572,-4.6704,-4.6705,-4.6706,-4.6767,-4.6768,-4.6769,-4.6757,-4.6755,-4.6754,-4.6753,-4.6811,-4.6815,-4.6818,0,0,0,0,0,0,0,0,0,0,0,0,0,-4.663,-4.6573,-4.6704,-4.6707,-4.6708,-4.6767,-4.6768,-4.6769,-4.6757,-4.6755,-4.6753,-4.6752,-4.681,-4.6814,-4.6818,-4.6876,0,0,-4.683,-4.6832,0,0,0,0,0,0,0,0,-4.6626,-4.6635,-4.6706,-4.6707,-4.6708,-4.6752,-4.6742,-4.6805,-4.6757,-4.6738,-4.6753,-4.6751,-4.6793,-4.6799,-4.6814,-4.6879,-4.6881,-4.683,-4.6833,-4.6835,-4.6836,0,0,0,0,0,0,0,-4.6622,-4.6632,-4.6729,-4.6707,-4.6709,-4.6704,-4.6711,-4.6754,-4.6774,-4.674,-4.6739,-4.6747,-4.6794,-4.681,-4.6815,-4.6882,-4.683,-4.6834,-4.6836,-4.6838,-4.6999,-4.7001,0,0,0,0,0,0,-4.6618,-4.6628,-4.6727,-4.6731,-4.6663,-4.6708,-4.6715,-4.674,-4.6774,-4.6777,-4.6748,-4.6746,-4.6804,-4.6811,-4.6817,-4.6889,-4.6835,-4.6838,-4.684,-4.6997,-4.6999,-4.7001,0,0,0,0,0,0,-4.6615,-4.6627,-4.6724,-4.668,-4.6692,-4.6712,-4.674,-4.6742,-4.6759,-4.678,-4.6783,-4.6762,-4.6803,-4.6812,-4.6862,-4.689,-4.684,-4.6844,-4.6995,-4.6998,-4.7,-4.7031,0,0,0,0,0,0,-4.6611,-4.6626,-4.6649,-4.668,-4.6694,-4.677,-4.6741,-4.6744,-4.6766,-4.6764,-4.6794,-4.6797,-4.6803,-4.6856,-4.6866,-4.6895,-4.6847,-4.6992,-4.6996,-4.6999,-4.7027,-4.7034,-4.704,0,0,0,0,0,-4.6606,-4.6653,-4.665,-4.6662,-4.6724,-4.6771,-4.6779,-4.6786,-4.6768,-4.6791,-4.6805,-4.6796,-4.6886,-4.6862,-4.6872,-4.6903,-4.6991,-4.6995,-4.6999,-4.7024,-4.7033,-4.704,0,0,0,0,0,0,-4.6622,-4.6657,-4.6654,-4.6713,-4.674,-4.6769,-4.6798,-4.6795,-4.6825,-4.6822,-4.6827,-4.6834,-4.6886,-4.6899,-4.6872,-4.6961,-4.6935,-4.6942,-4.6951,-4.6959,-4.6965,-4.6961,-4.685,0,0,0,0,0,-4.6633,-4.667,-4.6698,-4.6748,-4.6761,-4.6778,-4.6799,-4.6802,-4.6829,-4.6839,-4.6857,-4.6882,-4.6916,-4.6938,-4.697,-4.7029,-4.7035,-4.7055,-4.7062,-4.7067,-4.7073,-4.7106,-4.7115,-4.7016,-4.7016,-4.7015,0,0,-4.6655,-4.6679,-4.6702,-4.6752,-4.6773,-4.681,-4.6787,-4.6827,-4.6855,-4.6845,-4.6895,-4.6908,-4.6937,-4.6992,-4.7017,-4.7005,-4.7102,-4.7072,-4.7076,-4.7079,-4.7111,-4.712,-4.7129,-4.7019,-4.7018,-4.7018,0,0,-4.6715,-4.6736,-4.6781,-4.6803,-4.6836,-4.6846,-4.6857,-4.6888,-4.6897,-4.6948,-4.6941,-4.6973,-4.7031,-4.7052,-4.707,-4.7139,-4.7132,-4.7149,-4.7183,-4.7215,-4.7223,-4.723,-4.7256,-4.7265,-4.7155,-4.7155,-4.7155,0,-4.6737,-4.6795,-4.6803,-4.6845,-4.6868,-4.6862,-4.6907,-4.6927,-4.6968,-4.6983,-4.6968,-4.7042,-4.7061,-4.7121,-4.7139,-4.7153,-4.7165,-4.7146,-4.7222,-4.7229,-4.7235,-4.726,-4.7269,-4.7157,-4.7157,-4.7156,-4.7156,0,-4.6822,-4.6862,-4.6894,-4.6937,-4.6962,-4.7005,-4.7018,-4.7043,-4.7044,-4.7056,-4.7107,-4.7129,-4.7167,-4.7181,-4.7181,-4.7242,-4.7234,-4.7221,-4.7195,-4.7247,-4.727,-4.7279,-4.716,-4.7159,-4.7158,-4.7158,0,0,-4.6893,-4.6941,-4.6953,-4.6973,-4.7009,-4.7039,-4.7081,-4.712,-4.7142,-4.717,-4.7205,-4.7255,-4.7244,-4.7264,-4.7267,-4.7295,-4.735,-4.7279,-4.7279,-4.7292,-4.7419,-4.7429,-4.744,-4.7345,-4.7347,-4.7348,-4.7417,0,-4.6957,-4.7035,-4.7044,-4.7112,-4.7149,-4.7145,-4.7182,-4.7208,-4.722,-4.7252,-4.7265,-4.7301,-4.7283,-4.7296,-4.7323,-4.7337,-4.7375,-4.7332,-4.7378,-4.7379,-4.7372,-4.7452,-4.7463,-4.7526,-4.7426,-4.7427,-4.7428,0,-4.7042,-4.7076,-4.7149,-4.7181,-4.7197,-4.7231,-4.7267,-4.7299,-4.7327,-4.7334,-4.7358,-4.7358,-4.74,-4.7373,-4.7432,-4.7402,-4.7421,-4.7431,-4.7433,-4.7438,-4.7408,-4.746,-4.7547,-4.7557,-4.7442,-4.7441,-4.744,0,-4.7089,-4.7152,-4.7204,-4.7221,-4.7259,-4.7283,-4.73,-4.7327,-4.735,-4.7382,-4.7397,-4.7432,-4.7451,-4.7477,-4.7486,-4.7465,-4.7545,-4.7517,-4.7551,-4.7551,-4.7569,-4.7568,-4.7661,-4.758,-4.7579,-4.7579,-4.7579,0,-4.716,-4.7204,-4.7226,-4.7258,-4.7308,-4.7317,-4.7366,-4.7381,-4.7406,-4.744,-4.7437,-4.7469,-4.7478,-4.7511,-4.7517,-4.7566,-4.7574,-4.758,-4.7582,-4.7581,-4.7581,-4.7594,-4.759,-4.7582,-4.7581,-4.7581,-4.758,0,-4.722,-4.7236,-4.7293,-4.7326,-4.7335,-4.7371,-4.7398,-4.7429,-4.7441,-4.7484,-4.7495,-4.7513,-4.7552,-4.7563,-4.7609,-4.7614,-4.7671,-4.7667,-4.7662,-4.7662,-4.7696,-4.7693,-4.7802,-4.7817,-4.7725,-4.7725,-4.7726,0,-4.7265,-4.73,-4.7337,-4.7361,-4.738,-4.7418,-4.7442,-4.7452,-4.7477,-4.7514,-4.754,-4.7579,-4.7611,-4.7673,-4.7689,-4.7725,-4.7723,-4.7759,-4.7728,-4.7727,-4.7725,-4.7723,-4.7727,-4.7764,-4.7765,-4.7766,-4.7767,0,-4.7343,-4.735,-4.7386,-4.7425,-4.7455,-4.7486,-4.7515,-4.7534,-4.7548,-4.7576,-4.7618,-4.7643,-4.7691,-4.773,-4.7766,-4.7781,-4.7777,-4.7776,-4.7786,-4.7787,-4.7783,-4.7786,-4.7679,-4.7774,-4.7773,-4.7773,-4.7772,-4.7772,-4.7398,-4.7429,-4.7462,-4.7502,-4.7526,-4.7554,-4.7585,-4.7602,-4.7637,-4.7679,-4.7682,-4.7726,-4.7754,-4.7803,-4.7821,-4.7855,-4.7844,-4.7858,-4.7862,-4.7865,-4.7869,-4.7777,-4.7861,-4.7861,-4.7861,-4.786,-4.786,0,-4.7477,-4.7498,-4.7535,-4.7578,-4.761,-4.7605,-4.7637,-4.7664,-4.7704,-4.7731,-4.7764,-4.7811,-4.7849,-4.7869,-4.7906,-4.793,-4.7929,-4.7939,-4.7938,-4.7942,-4.7876,-4.7864,-4.794,-4.794,-4.794,-4.794,-4.794,-4.794,-4.7522,-4.7576,-4.7586,-4.7651,-4.7671,-4.7717,-4.7736,-4.7761,-4.7784,-4.7838,-4.787,-4.7884,-4.7908,-4.7948,-4.7982,-4.7987,-4.8001,-4.8013,-4.8017,-4.7954,-4.7946,-4.7939,-4.7928,-4.8016,-4.8016,-4.808,-4.8081,-4.8081]}]]